Rbgn^[z[y[W
メイン
   新天体発見情報
     Comet C/2024 E1 (Wierzchos)
投稿するにはまず登録を

フラット表示 前のトピック | 次のトピック
投稿者 スレッド
佐藤裕久
投稿日時: 2024-3-25 21:27
モデレータ
登録日: 2005-6-12
居住地: 日本
投稿: 2585
オンライン
Comet C/2024 E1 (Wierzchos)

Kacper W. Wierzchos (アリゾナ大学)によると、彼は3月3日、Mt Lemmonサーベイの1.5-m 反射
望遠鏡で得た4枚の30-秒CCD画像から彗星を発見した。
この天体は、4"のコマがp.a. 320°に少し伸びて見えた。6"の尾の可能性がある。
Wierzchosは、またコマを確認するため、3枚60秒フィルターなしのフォローアップ画像を得た。
小惑星センターのPCCP webpageに公表後、W. Ryanは、3月4.5日UT、Magdalena Ridge天文台の
2.4-m 反射望遠鏡で得た不良なシーイングでの画像から、視野の恒星に対してかなりやっとして
(非常に集光した4".5のコマ)見えた(彗星の半値全くは単一画像でもスタック画像でも一貫して
近傍の恒星より30%大きかった)。p.a.約295°に短い伸びている可能性がある。


彗星機能の報告は次のとおり、

OC   Date        Reporter           Coma    Tail    PA          Exposures
I52  2024-03-03  J. Hogan          13".2                          3x120s
H01  2024-03-04  B. Ryan            4".5
Z31  2024-03-05  P. Breitenstein    5"      5".5   160-170

発見位置は次のとおり、

     2024 UT             R.A. (2000) Decl.       Mag.   Observer
     Mar.  3.44584   17 19 12.26   +55 07 02.0   20.4   Wierzchos
           3.45111   17 19 12.41   +55 07 04.6   20.1     "
           3.45637   17 19 12.45   +55 07 05.8   21.0     "
           3.46161   17 19 12.52   +55 07 07.8   20.8     "
           3.46783   17 19 12.59   +55 07 10.7   20.3     "
           3.47182   17 19 12.66   +55 07 12.2   20.9     "
           3.47589   17 19 12.73   +55 07 13.4   20.3     "

MPCの双曲線軌道要素、位置推算表は次のとおり、

Orbital elements:
    C/2024 E1 (Wierzchos)                                                       
Epoch 2024 Mar. 31.0 TT = JDT 2460400.5                                         
T 2026 Jan. 20.44981 TT                                 Rudenko                 
q   0.5617593            (2000.0)            P               Q                  
z  -0.0008827      Peri.  243.65092     +0.35692271     -0.17512311             
 +/-0.0000028      Node   108.38165     +0.02436409     +0.98368118             
e   1.0004959      Incl.   75.21860     -0.93381613     -0.04127035             
From 27 observations 2024 Feb. 15-Mar. 6, mean residual 0".2.                   
                                                                                
Ephemeris:
Date    TT    R. A. (2000) Decl.     Delta      r    Elong.  Phase   m1
2024 02 05    17 08 31.9 +52 32 28   8.2882  8.2835    86.3     6.8  20.8
...
2024 02 20    17 15 21.3 +53 51 40   8.1042  8.1604    89.8     7.0  20.7
...
2024 02 28    17 18 02.5 +54 39 18   8.0081  8.0944    91.5     7.0  20.6
...
2024 03 05    17 19 33.0 +55 16 54   7.9374  8.0448    92.7     7.1  20.6
2024 03 06    17 19 45.4 +55 23 17   7.9258  8.0365    92.9     7.1  20.5
2024 03 07    17 19 56.9 +55 29 43   7.9141  8.0282    93.0     7.1  20.5
...
2024 03 13    17 20 48.4 +56 08 49   7.8454  7.9784    94.1     7.1  20.5
...
2024 03 21    17 21 06.9 +57 01 47   7.7563  7.9117    95.4     7.2  20.4
...
2024 04 05    17 18 52.1 +58 39 50   7.5984  7.7859    97.1     7.3  20.3

(MPEC 2024-E102、CBET 5364)

フラット表示 前のトピック | 次のトピック

題名 投稿者 日時
 » Comet C/2024 E1 (Wierzchos) 佐藤裕久 2024-3-25 21:27

投稿するにはまず登録を
 
© 1999 Tsutomu Seki.